Canton, GA

11:37 PM EDT on June 22, 2017 (GMT -0400)
Canton

Weather History for KCNI - February, 2013

Change the Weather History Date:

Thursday, February 7, 2013

  Actual Average (KMGE) Record (KMGE)
Temperature  
Mean Temperature 46 °F -  
Max Temperature 51 °F 52 °F 69 °F (1999)
Min Temperature 41 °F 34 °F 25 °F (2014)
Degree Days  
Heating Degree Days 19    
Moisture  
Dew Point 33 °F    
Average Humidity 62    
Maximum Humidity 87    
Minimum Humidity 28    
Precipitation  
Precipitation 0.00 in - - ()
Sea Level Pressure  
Sea Level Pressure 30.06 in    
Wind  
Wind Speed 5 mph (ENE)    
Max Wind Speed 14 mph    
Max Gust Speed 26 mph    
Visibility 9 miles    
Events Rain    
Averages and records for this station are not official NWS values.
T = Trace of Precipitation, MM = Missing Value Source: NWS Daily Summary

Daily Weather History Graph

Daily Weather History Graph

Search for Another Location

Airport or City:

Trip Planner

Search our weather history database for the weather conditions in past years. The results will help you decide how hot, cold, wet, or windy it might be!

Date:

Astronomy

Feb. 07, 2013 Rise Set
Actual Time 7:30 AM EST 6:13 PM EST
Civil Twilight 7:04 AM EST 6:39 PM EST
Nautical Twilight 6:34 AM EST 7:09 PM EST
Astronomical Twilight 6:05 AM EST 7:39 PM EST
Moon 5:04 AM EST (2/7) 3:40 PM EST (2/7)
Length of Visible Light 11h 35m
Length of Day
10h 43m
Waning Crescent, 9% of the Moon is Illuminated
Feb 7
Waning Crescent
Feb 10
New
Feb 17
First Quarter
Feb 25
Full
Mar 4
Last Quarter

Hourly Weather History & Observations

Time (EST) Temp. Windchill Dew Point Humidity Pressure Visibility Wind Dir Wind Speed Gust Speed Precip Events Conditions
12:15 AM 44.6 °F - 26.6 °F 49% 30.13 in 10.0 mi Calm Calm - N/A   Clear
12:35 AM 41.0 °F 39.0 °F 28.4 °F 61% 30.14 in 10.0 mi North 3.5 mph - N/A   Clear
12:55 AM 42.8 °F 41.1 °F 26.6 °F 53% 30.14 in 10.0 mi ENE 3.5 mph - N/A   Clear
1:15 AM 44.6 °F 41.4 °F 26.6 °F 49% 30.12 in 10.0 mi ENE 5.8 mph - N/A   Clear
1:35 AM 42.8 °F 41.1 °F 26.6 °F 53% 30.12 in 10.0 mi ENE 3.5 mph - N/A   Clear
1:55 AM 42.8 °F 41.1 °F 26.6 °F 53% 30.13 in 10.0 mi ENE 3.5 mph - N/A   Clear
2:15 AM 42.8 °F 40.1 °F 24.8 °F 49% 30.14 in 10.0 mi ENE 4.6 mph - N/A   Clear
2:35 AM 42.8 °F 40.1 °F 24.8 °F 49% 30.14 in 10.0 mi ENE 4.6 mph - N/A   Clear
2:55 AM 44.6 °F - 23.0 °F 43% 30.15 in 10.0 mi Calm Calm - N/A   Clear
3:15 AM 44.6 °F 43.1 °F 21.2 °F 39% 30.15 in 10.0 mi ENE 3.5 mph - N/A   Clear
3:35 AM 46.4 °F 45.2 °F 21.2 °F 37% 30.15 in 10.0 mi ENE 3.5 mph - N/A   Clear
3:55 AM 46.4 °F - 21.2 °F 37% 30.16 in 10.0 mi Calm Calm - N/A   Clear
4:15 AM 46.4 °F 44.3 °F 21.2 °F 37% 30.16 in 10.0 mi ENE 4.6 mph - N/A   Clear
4:35 AM 46.4 °F 44.3 °F 21.2 °F 37% 30.15 in 10.0 mi ENE 4.6 mph - N/A   Scattered Clouds
4:55 AM 46.4 °F 44.3 °F 21.2 °F 37% 30.14 in 10.0 mi ENE 4.6 mph - N/A   Scattered Clouds
5:15 AM 48.2 °F - 19.4 °F 32% 30.14 in 10.0 mi ENE 5.8 mph - N/A   Overcast
5:35 AM 50.0 °F - 19.4 °F 30% 30.13 in 10.0 mi ENE 5.8 mph - N/A   Overcast
5:55 AM 50.0 °F - 21.2 °F 32% 30.14 in 10.0 mi ENE 3.5 mph - N/A   Overcast
6:15 AM 50.0 °F - 19.4 °F 30% 30.14 in 10.0 mi ENE 5.8 mph - N/A   Overcast
6:35 AM 50.0 °F - 19.4 °F 30% 30.14 in 10.0 mi ENE 8.1 mph - N/A   Overcast
6:55 AM 50.0 °F - 21.2 °F 32% 30.14 in 10.0 mi ENE 5.8 mph - N/A   Overcast
7:15 AM 51.8 °F - 19.4 °F 28% 30.14 in 10.0 mi ENE 6.9 mph - N/A   Overcast
7:35 AM 50.0 °F - 23.0 °F 35% 30.14 in 10.0 mi NE 3.5 mph - N/A Rain Light Rain
7:55 AM 50.0 °F - 23.0 °F 35% 30.14 in 10.0 mi ENE 4.6 mph - N/A   Overcast
8:15 AM 50.0 °F - 26.6 °F 40% 30.14 in 10.0 mi East 3.5 mph - N/A   Drizzle
8:35 AM 48.2 °F - 28.4 °F 46% 30.14 in 10.0 mi East 3.5 mph - N/A Rain Light Rain
8:55 AM 46.4 °F 43.5 °F 28.4 °F 50% 30.14 in 10.0 mi ENE 5.8 mph - N/A Rain Rain
9:15 AM 48.2 °F - 28.4 °F 46% 30.13 in 10.0 mi East 5.8 mph - N/A   Drizzle
9:35 AM 46.4 °F 43.5 °F 32.0 °F 57% 30.13 in 10.0 mi ENE 5.8 mph - N/A Rain Light Rain
9:55 AM 46.4 °F 44.3 °F 32.0 °F 57% 30.11 in 7.0 mi East 4.6 mph - N/A Rain Light Rain
10:15 AM 44.6 °F 41.4 °F 33.8 °F 66% 30.11 in 10.0 mi ENE 5.8 mph - N/A Rain Light Rain
10:35 AM 44.6 °F 40.7 °F 33.8 °F 66% 30.11 in 10.0 mi ENE 6.9 mph - N/A Rain Light Rain
10:55 AM 44.6 °F 40.7 °F 33.8 °F 66% 30.09 in 10.0 mi ENE 6.9 mph - N/A   Light Drizzle
11:15 AM 44.6 °F 40.2 °F 33.8 °F 66% 30.08 in 7.0 mi ENE 8.1 mph - N/A Rain Rain
11:35 AM 44.6 °F 39.7 °F 35.6 °F 71% 30.08 in 7.0 mi ENE 9.2 mph - N/A Rain Light Rain
11:55 AM 44.6 °F 40.2 °F 35.6 °F 71% 30.09 in 10.0 mi ENE 8.1 mph - N/A Rain Rain
12:35 PM 44.6 °F 39.7 °F 37.4 °F 76% 30.07 in 5.0 mi ENE 9.2 mph 16.1 mph N/A Rain Light Rain
12:55 PM 44.6 °F 41.4 °F 37.4 °F 76% 30.06 in 5.0 mi ENE 5.8 mph - N/A Rain Rain
1:15 PM 46.4 °F 42.9 °F 39.2 °F 76% 30.05 in 5.0 mi ENE 6.9 mph - N/A Rain Rain
1:35 PM 46.4 °F 41.1 °F 39.2 °F 76% 30.03 in 4.0 mi East 11.5 mph 17.3 mph N/A Rain Light Rain
1:55 PM 46.4 °F 41.9 °F 41.0 °F 81% 30.02 in 4.0 mi ENE 9.2 mph 21.9 mph N/A   Drizzle
2:15 PM 46.4 °F 41.5 °F 41.0 °F 81% 30.02 in 5.0 mi ENE 10.4 mph 20.7 mph N/A Rain Light Rain
2:35 PM 46.4 °F 42.4 °F 39.2 °F 76% 30.01 in 7.0 mi ENE 8.1 mph 20.7 mph N/A Rain Light Rain
2:55 PM 46.4 °F 42.4 °F 39.2 °F 76% 30.01 in 7.0 mi ENE 8.1 mph 16.1 mph N/A   Light Drizzle
3:15 PM 44.6 °F 38.1 °F 37.4 °F 76% 29.99 in 7.0 mi ENE 13.8 mph 20.7 mph N/A Rain Rain
3:35 PM 46.4 °F 41.1 °F 37.4 °F 71% 29.98 in 10.0 mi East 11.5 mph 26.5 mph N/A   Light Drizzle
3:55 PM 46.4 °F 40.7 °F 37.4 °F 71% 29.96 in 10.0 mi ENE 12.7 mph 16.1 mph N/A   Overcast
4:15 PM 46.4 °F 41.5 °F 37.4 °F 71% 29.97 in 5.0 mi ENE 10.4 mph 19.6 mph N/A Rain Light Rain
4:35 PM 46.4 °F 41.5 °F 39.2 °F 76% 29.96 in 5.0 mi ENE 10.4 mph 16.1 mph N/A Rain Light Rain
4:55 PM 46.4 °F 42.4 °F 41.0 °F 81% 29.96 in 5.0 mi ENE 8.1 mph 17.3 mph N/A   Haze
5:15 PM 46.4 °F 44.3 °F 41.0 °F 81% 29.96 in 5.0 mi East 4.6 mph 19.6 mph N/A   Drizzle
5:35 PM 46.4 °F 41.5 °F 41.0 °F 81% 29.96 in 10.0 mi ENE 10.4 mph 18.4 mph N/A   Overcast
5:55 PM 46.4 °F 41.9 °F 39.2 °F 76% 29.96 in 10.0 mi ENE 9.2 mph 18.4 mph N/A   Overcast
6:15 PM 46.4 °F 42.9 °F 39.2 °F 76% 29.96 in 10.0 mi ENE 6.9 mph - N/A   Overcast
6:35 PM 46.4 °F 42.9 °F 39.2 °F 76% 29.95 in 7.0 mi ENE 6.9 mph - N/A Rain Light Rain
6:55 PM 46.4 °F 42.4 °F 41.0 °F 81% 29.95 in 7.0 mi ENE 8.1 mph - N/A   Overcast
7:15 PM 46.4 °F 42.9 °F 41.0 °F 81% 29.95 in 7.0 mi ENE 6.9 mph - N/A   Overcast
7:35 PM 46.4 °F 41.1 °F 41.0 °F 81% 29.95 in 10.0 mi ENE 11.5 mph - N/A   Overcast
7:55 PM 46.4 °F 41.9 °F 41.0 °F 81% 29.96 in 10.0 mi ENE 9.2 mph - N/A   Overcast
8:15 PM 46.4 °F 41.9 °F 41.0 °F 81% 29.96 in 10.0 mi ENE 9.2 mph - N/A   Overcast
8:35 PM 46.4 °F 41.9 °F 41.0 °F 81% 29.96 in 10.0 mi East 9.2 mph - N/A   Overcast
8:55 PM 46.4 °F 41.9 °F 41.0 °F 81% 29.96 in 10.0 mi ENE 9.2 mph - N/A   Overcast
9:15 PM 48.2 °F - 41.0 °F 76% 29.97 in 10.0 mi East 6.9 mph - N/A   Overcast
9:35 PM 48.2 °F - 41.0 °F 76% 29.97 in 7.0 mi East 6.9 mph - N/A   Overcast
9:55 PM 46.4 °F 43.5 °F 41.0 °F 81% 29.96 in 7.0 mi East 5.8 mph - N/A Rain Light Rain
10:15 PM 46.4 °F 45.2 °F 41.0 °F 81% 29.96 in 7.0 mi East 3.5 mph - N/A   Overcast
10:35 PM 46.4 °F 45.2 °F 42.8 °F 87% 29.96 in 10.0 mi East 3.5 mph - N/A   Overcast
10:55 PM 46.4 °F 43.5 °F 42.8 °F 87% 29.95 in 10.0 mi East 5.8 mph - N/A   Overcast
11:15 PM 46.4 °F 43.5 °F 42.8 °F 87% 29.95 in 10.0 mi ENE 5.8 mph - N/A   Overcast
11:35 PM 46.4 °F 43.5 °F 42.8 °F 87% 29.95 in 10.0 mi East 5.8 mph - N/A   Overcast
11:55 PM 46.4 °F 45.2 °F 41.0 °F 81% 29.95 in 10.0 mi East 3.5 mph - N/A   Overcast